This demonstration page uses our WeatherBlox Daily Observations layout. Learn more.

Left ArrowRight Arrow

53.62937, 11.41316

Hourly Observations for January 16, 2018

Temp ( °F °C ) Dew Point ( °F °C ) Humidity (%) Winds ( mph kmh ) Pressure ( in mb ) Visibility ( mi km ) Precip ( " mm )
5:20 am 05:20 Cloudy 37 3 37 3 100 100 SSW 16 26 29.18 988 30 48 N/A
5:50 am 05:50 Cloudy 39 4 37 3 93 93 SSW 18 30 29.18 988 30 48 N/A
6:20 am 06:20 Mostly Cloudy with Drizzle 39 4 37 3 93 93 SSW 16 26 29.18 988 30 48 N/A
7:50 am 07:50 Cloudy 37 3 37 3 100 100 S 9 15 29.18 988 30 48 N/A
8:50 am 08:50 Cloudy 37 3 37 3 100 100 SSW 12 19 29.18 988 30 48 N/A
9:20 am 09:20 Mostly Cloudy 37 3 36 2 93 93 SSW 13 20 29.18 988 30 48 N/A
9:50 am 09:50 Mostly Cloudy 39 4 37 3 93 93 SSW 14 22 29.18 988 30 48 N/A
10:20 am 10:20 Mostly Cloudy with Light Rain 39 4 37 3 93 93 SSW 9 15 29.18 988 30 48 N/A
10:50 am 10:50 Mostly Cloudy 39 4 36 2 87 87 SSW 12 19 29.18 988 30 48 N/A
11:20 am 11:20 Mostly Cloudy 39 4 36 2 87 87 SSW 15 24 29.15 987 30 48 N/A
11:50 am 11:50 Mostly Cloudy 39 4 36 2 87 87 SSW 15 24 29.15 987 30 48 N/A
12:20 pm 12:20 Mostly Cloudy 39 4 36 2 87 87 SW 14 22 29.15 987 30 48 N/A
12:50 pm 12:50 Cloudy 39 4 36 2 87 87 SSW 13 20 29.15 987 30 48 N/A
1:20 pm 13:20 Mostly Cloudy 39 4 36 2 87 87 SW 13 20 29.15 987 30 48 N/A
1:50 pm 13:50 Cloudy 39 4 36 2 87 87 SW 10 17 29.15 987 30 48 N/A
2:20 pm 14:20 Mostly Cloudy 39 4 36 2 87 87 SW 8 13 29.12 986 30 48 N/A
2:50 pm 14:50 Mostly Cloudy 39 4 36 2 87 87 SW 12 19 29.12 986 30 48 N/A
3:20 pm 15:20 Cloudy 39 4 36 2 87 87 SW 8 13 29.15 987 30 48 N/A
3:50 pm 15:50 Mostly Cloudy 39 4 36 2 87 87 SW 8 13 29.15 987 30 48 N/A
4:50 pm 16:50 Cloudy with Light Rain 37 3 36 2 93 93 SW 13 20 29.15 987 30 48 N/A
5:20 pm 17:20 Cloudy with Light Rain 37 3 36 2 93 93 WSW 15 24 29.15 987 30 48 N/A
5:50 pm 17:50 Cloudy 36 2 34 1 93 93 W 14 22 29.18 988 30 48 N/A

Powered by AerisWeather